Location: Newark
(46.7636°N, 1.8358°W)
Time: 08:51:34
(UTC+00:00)

Vanguard 2 Rocket - Pass Details

Date: 21 October 2019
Orbit: 554 x 3326 km, 32.9° (Epoch: 11 November)

Event Time Altitude Azimuth Distance (km) Brightness Sun altitude
Rises 13:42:33 0° 272° (W) 7,294 11.9 27.4°
Reaches altitude 10° 13:47:59 10° 266° (W) 6,284 11.8 26.9°
Maximum altitude 14:05:07 39° 208° (SSW) 3,830 12.0 25.3°
Drops below altitude 10° 14:17:47 10° 146° (SSE) 4,680 10.8 23.9°
Sets 14:21:10 0° 139° (SE) 5,333 10.9 23.6°
